Regional Weather Roundup
Issued by NWS

Home | Current Version | Previous Version | Graphics & Text | Print | Product List | Glossary On
Versions: 1 2 3 4 5 6 7 8 9 10 11 12 13 14 15 16 17 18 19 20 21 22 23 24 25 26 27 28 29 30 31 32 33 34 35 36 37 38 39 40 41 42 43 44 45 46 47 48 49 50
000
ASUS45 KTFX 242010
RWRMT
MONTANA REGIONAL WEATHER ROUNDUP
NATIONAL WEATHER SERVICE GREAT FALLS MT
200 PM MDT TUE MAY 24 2016

NOTE: "FAIR" INDICATES FEW OR NO CLOUDS BELOW 12000 FEET WITH NO
SIGNIFICANT WEATHER AND/OR OBSTRUCTIONS TO VISIBILITY.

MTZ001>007-043-242100-
WEST OF THE DIVIDE

CITY           SKY/WX    TMP DP  RH WIND       PRES   REMARKS
KALISPELL      SUNNY     55  41  59 VRB5      29.92F
MISSOULA       CLOUDY    54  42  64 NW8       29.94S
BUTTE          LGT RAIN  45  37  73 W9        29.93S
MULLAN PASS    FOG       39  39 100 VRB5      29.94S VSB<1/4
ANACONDA         N/A     52  37  58 N7        29.90S
DEER LODGE       N/A     52  37  58 S3        29.92F
EUREKA           N/A     61  37  41 CALM      29.90F
HAMILTON         N/A     55  39  54 N5        29.91S
LIBBY            N/A     59  43  55 E6        29.90F
PLAINS           N/A     60  44  55 CALM      29.94S
$$

MTZ008-052>055-242100-
SOUTHWEST MONTANA

CITY           SKY/WX    TMP DP  RH WIND       PRES   REMARKS
BOZEMAN        CLOUDY    52  40  63 VRB5      29.92S
DILLON         CLOUDY    52  35  52 VRB5      29.90S
ENNIS          SUNNY     54  36  50 VRB6      29.95S
TWIN BRIDGES     N/A     53  37  54 NW5       29.91F
$$

MTZ009-010-012-014-046-048-049-054-242100-
EAST SLOPES AND CENTRAL MONTANA

CITY           SKY/WX    TMP DP  RH WIND       PRES   REMARKS
CUT BANK       PTSUNNY   54  40  59 VRB7      29.88F
GREAT FALLS    MOSUNNY   56  37  49 W7        29.89F
MALMSTROM AFB  PTSUNNY   55  38  53 N6        29.90S
HELENA         PTSUNNY   55  38  52 S6        29.89F
CHOTEAU          N/A     54  39  58 NE7       29.90S
CONRAD           N/A     57  45  64 W1        29.93S
$$

MTZ011-013-016-021-045-047-050-051-242100-
NORTH CENTRAL MONTANA

CITY           SKY/WX    TMP DP  RH WIND       PRES   REMARKS
HAVRE          CLOUDY    54  45  71 NW14      29.89S
LEWISTOWN      PTSUNNY   55  39  54 VRB5      29.90S
N BAR RANCH    LGT RAIN  48  45  87 NE8       29.92S
CHINOOK          N/A     54  45  71 SW7       29.89S
$$

MTZ017>020-022>027-061-062-242100-
NORTHEAST MONTANA

CITY           SKY/WX    TMP DP  RH WIND       PRES   REMARKS
GLASGOW        CLOUDY    59  42  53 SW12      29.88S
JORDAN           N/A     62  38  40 W12       29.89S
SIDNEY         CLOUDY    66  40  38 SW13      29.88S
WOLF POINT     CLOUDY    64  42  44 SW10      29.89R
PLENTYWOOD       N/A     63  39  42 SW15G24   29.87S
POPLAR           N/A     63  39  42 W16       29.89S
SCOBEY           N/A     61  36  39 SW25      29.86S
$$

MTZ028>42-056>058-242100-
SOUTHCENTRAL AND SOUTHEAST MONTANA

CITY           SKY/WX    TMP DP  RH WIND       PRES   REMARKS
BAKER          PTSUNNY   69  38  32 SE6       29.90F
BILLINGS       MOSUNNY   61  39  44 NE6       29.88F
LIVINGSTON     MOSUNNY   56  38  50 VRB7      29.89S
MILES CITY     PTSUNNY   66  40  38 VRB5      29.89F
EKALAKA          N/A     67  38  34 E7        29.89F
FORSYTH          N/A     63  41  45 NW3       29.89S
ROUNDUP          N/A     60  36  40 E5        29.82F
$$

REGIONAL REPORTS...DAKOTAS

CITY           SKY/WX    TMP DP  RH WIND       PRES   REMARKS
WILLISTON      MOSUNNY   68  39  34 SW9G20    29.88F
MINOT          MOSUNNY   76  39  26 SW10      29.88S
DICKINSON      MOSUNNY   69  37  30 MISG      29.88F
BEACH            N/A     68  37  32 SW14G20   29.93F
CROSBY           N/A     66  37  34 SW15G22   29.89S
WATFORD CITY     N/A     68  37  32 SW14      29.90S
BISMARCK       SUNNY     75  38  26 W5        29.88F
GRAND FORKS    MOSUNNY   77  52  41 NW5       29.87R
FARGO          MOSUNNY   83  46  27 N10       29.84S
BUFFALO SD       N/A     74  40  29 SE10G25   29.82F
RAPID CITY     CLOUDY    68  42  38 SE8       29.91R
$$

REGIONAL REPORTS...WYOMING/IDAHO/WASHINGTON

CITY           SKY/WX    TMP DP  RH WIND       PRES   REMARKS
GILLETTE       PTSUNNY   67  35  30 VRB3      29.87F
SHERIDAN       MOSUNNY   65  39  38 E6        29.86F
BUFFALO WY     PTSUNNY   65  36  34 S13       29.89S
CODY           CLOUDY    59  41  51 N8        29.85F
YELLOWSTONE LA   N/A     45  29  53 VRB7      29.97R
IDAHO FALLS    MOSUNNY   63  35  35 VRB5      29.85R
SALMON         PTSUNNY   55  39  54 N12       29.87S
BOISE          MOSUNNY   69  36  29 NW13G20   29.83F
SPOKANE        PTSUNNY   58  45  62 CALM      29.92S
$$

REGIONAL REPORTS...ALBERTA

CITY           SKY/WX    TMP DP  RH WIND       PRES   REMARKS
EDMONTON       CLOUDY    57  43  58 S6        29.86S
CALGARY        PTSUNNY   61  39  44 S10       29.86R
LETHBRIDGE     PTSUNNY   55  43  62 VRB6      29.88S
MEDICINE HAT   LGT RAIN  55  45  67 NW17G24   29.85S
WATERTON GATE    N/A     55  39  54 SW12G17     N/A
MILK RIVER       N/A     52  45  76 NE8         N/A
ONEFOUR          N/A     54  41  62 W12         N/A
$$

REGIONAL REPORTS...SASKATCHEWAN

CITY           SKY/WX    TMP DP  RH WIND       PRES   REMARKS
SWIFT CURRENT  PTSUNNY   54  46  76 N7        29.80S
REGINA         PTSUNNY   63  41  45 S6        29.82R
SASKATOON      CLOUDY    54  50  87 NE15      29.87S
VAL MARIE        N/A     55  46  71 SW16G22     N/A
ROCKGLEN         N/A     52  43  71 W12         N/A
ASSINIBOIA       N/A     59  43  55 S7          N/A
$$



USA.gov is the U.S. government's official web portal to all federal, state and local government web resources and services.